Simultaneous Nadir Overpasses (SNOs) Predictions

Prediction of SNOs between METOP-B and TERRA Satellite Orbit:

Table of predicted SNOs for the next 14.0 days since TLE Epoch: 8/28/2013
Index Date (METOP-B) Time (METOP-B) Lat,Lon (METOP-B) SZA (METOP-B ) Date (TERRA) Time (TERRA) Lat,Lon (TERRA) SZA (TERRA ) Distance(km) Time Diff (sec)
1 08/29/2013 01:37:48 81.30,-157.40 74.74 08/29/2013 01:38:11 81.31,-157.38 74.75 0.38 23
2 08/29/2013 02:28:29 -81.31, 10.07 105.24 08/29/2013 02:27:38 -81.30, 10.17 105.25 1.69 51
3 08/31/2013 21:12:10 81.31, -90.78 75.79 08/31/2013 21:12:26 81.31, -90.85 75.80 1.20 16
4 08/31/2013 22:02:51 -81.31, 76.68 104.18 08/31/2013 22:01:53 -81.31, 76.73 104.21 0.80 58
5 09/03/2013 16:46:33 81.30, -24.60 76.81 09/03/2013 16:46:41 81.31, -24.41 76.84 3.36 8
6 09/03/2013 17:37:13 -81.31, 143.25 103.12 09/03/2013 17:36:08 -81.31, 143.19 103.16 1.04 65
7 09/06/2013 11:30:24 -81.22,-129.38 102.62 09/06/2013 11:31:38 -81.10,-129.08 102.64 14.44 74
8 09/06/2013 12:20:54 81.31, 41.94 77.89 09/06/2013 12:20:55 81.31, 41.92 77.89 0.22 1
9 09/06/2013 13:11:35 -81.31,-150.61 102.09 09/06/2013 13:10:22 -81.31,-150.45 102.10 2.69 73
10 09/09/2013 07:04:37 -81.30, -59.40 101.10 09/09/2013 07:05:44 -81.29, -59.50 101.08 1.68 67




NCC Satellite Simultaneous Nadir Overpasses (SNOs) Prediction Service
